Dewpoint
33 30 31 33 43 48 47 45 48 51 47 47 49 50 48 49 48 48 46 46 48 50 51 53 55 55 58 62 64 66 68 72 71 71 70 72 72 75 74 76 77 77 77 77
29 26 28 31 44 45 43 43 44 46 46 41 42 40 46 49 49 50 49 48 48 49 49 56 57 57 59 64 67 69 71 75 73 71 72 71 72 74 75 75 77 77 77 77
26 26 23 25 31 33 33 31 37 42 39 37 40 43 49 50 50 50 50 50 48 48 48 53 56 57 58 63 66 69 73 74 74 75 73 74 73 73 73 71 72 76 77 76
22 23 21 20 26 29 28 31 34 32 31 34 41 38 48 50 50 50 50 50 49 48 48 51 54 55 57 61 65 70 71 75 74 76 74 76 73 71 71 72 74 76 77 76
16 20 21 21 22 25 28 33 34 31 29 38 40 38 53 53 52 50 49 49 49 48 48 49 53 56 57 61 62 68 71 75 75 75 78 74 74 73 70 73 73 76 76 77
11 15 17 19 21 21 24 28 30 30 29 28 27 38 47 51 53 51 48 49 49 48 47 48 52 55 56 60 62 65 71 74 76 76 76 77 74 73 75 73 72 74 77 77
6 5 14 16 17 19 21 22 24 25 24 25 23 38 42 50 50 49 47 47 49 49 47 48 52 53 56 58 60 64 71 73 75 75 75 77 77 77 75 71 74 72 71 72
4 2 3 14 16 16 17 18 21 28 21 20 28 40 41 47 48 45 44 46 47 50 49 48 52 53 56 58 60 64 71 73 74 75 76 77 77 74 73 77 71 70 66 71
7 6 3 3 10 11 13 19 19 19 20 29 31 40 41 41 35 35 32 44 45 50 50 48 50 49 54 57 61 67 71 73 74 73 76 77 77 76 74 77 73 71 69 69
9 12 10 3 2 6 7 12 13 17 25 27 26 33 37 44 39 35 33 35 42 48 50 49 49 50 51 52 57 68 72 73 73 72 74 75 76 77 77 78 71 67 67 68
10 9 12 10 5 3 3 4 7 6 12 20 27 31 30 43 44 22 26 28 41 45 49 49 50 51 51 54 56 61 69 71 72 71 73 74 74 75 76 75 76 68 68 65
13 8 11 12 11 6 2 3 1 10 18 17 19 21 23 26 21 16 16 27 36 44 49 51 50 51 51 55 59 62 67 69 71 70 73 73 74 75 73 73 75 73 66 66
13 11 10 11 10 9 5 3 1 -2 2 16 16 20 32 32 30 25 15 22 46 48 52 51 52 53 52 57 64 65 68 69 69 71 71 71 73 73 72 74 76 73 77 76
36 16 11 12 18 12 11 5 3 -3 2 1 4 14 28 28 28 27 25 31 40 50 54 50 51 53 54 59 67 69 69 69 71 71 69 72 74 74 74 75 76 78 79 79
18 21 21 16 16 16 11 8 4 3 3 6 6 10 14 25 27 30 31 33 48 49 50 52 50 53 57 64 69 71 70 72 74 76 74 76 76 78 78 79 78 78 79 79
24 24 24 22 18 17 10 7 5 1 4 7 7 10 14 26 33 30 28 33 48 52 52 53 58 59 59 68 70 71 72 75 76 76 74 77 78 78 79 80 79 80 78 79
25 23 22 23 20 19 13 9 5 6 5 7 9 12 15 17 26 33 34 32 38 52 55 57 58 57 58 69 71 72 73 76 76 75 75 77 78 78 79 80 79 80 78 77
30 24 26 21 25 21 17 13 7 6 9 7 11 16 18 25 27 27 30 34 38 46 53 61 55 52 56 67 70 75 75 76 74 75 75 78 78 78 79 79 79 80 79 78
38 43 31 30 21 22 20 16 15 14 16 16 17 18 18 22 29 51 54 50 46 44 55 58 54 49 57 67 72 75 75 76 74 74 75 78 78 78 79 79 79 79 79 78
30 39 44 37 34 25 26 21 19 19 19 29 30 36 39 40 38 48 49 57 60 55 48 53 53 51 58 64 72 74 74 74 74 75 76 78 78 78 78 79 79 80 79 78
28 35 38 45 36 31 35 31 28 27 41 45 43 44 44 45 50 49 57 61 63 63 56 57 56 54 60 64 72 73 74 73 74 75 77 78 77 78 79 80 80 78 77 77
34 32 31 32 35 32 44 39 33 50 49 49 50 51 50 48 50 55 60 64 65 65 61 59 61 60 62 68 72 73 74 76 76 76 76 77 77 77 78 80 79 78 77 76
30 30 32 31 32 51 53 47 45 42 52 52 54 52 53 49 49 53 61 65 64 61 60 61 66 69 68 71 73 73 76 76 76 75 76 77 78 78 79 78 78 76 77 74
44 34 33 39 36 45 52 52 50 49 49 49 50 52 53 52 51 55 62 64 62 60 58 61 65 68 71 76 75 75 76 77 75 75 76 77 78 79 78 78 77 75 74 73
48 47 40 41 45 50 49 49 49 49 48 48 49 50 53 54 53 55 62 66 65 63 61 66 68 72 74 75 75 76 76 76 75 76 77 78 78 78 78 68 71 73 71 68
48 50 43 37 49 48 51 49 50 49 49 50 50 50 52 54 55 58 63 68 69 69 69 70 72 73 73 73 75 75 77 78 77 77 77 76 77 75 66 65 61 52 50 49
Lifted_Index
4 3 2 0 -1 0 0 -0 -1 -1 -1 -2 -2 -3 -3 -2 -2 -2 -1 -0 0 0 0 0 -0 -1 -1 -2 -2 -2 -3 -4 -4 -4 -4 -4 -5 -5 -5 -5 -5 -6 -6 -6
3 3 2 -0 -1 -0 0 -0 -1 -1 -1 -1 -1 -2 -2 -3 -2 -2 -1 -1 0 0 0 -0 -1 -1 -1 -2 -3 -3 -4 -4 -4 -4 -4 -5 -5 -5 -4 -4 -5 -6 -6 -7
2 2 1 -0 -1 -1 -0 -1 -1 -1 -1 -1 -1 -1 -2 -2 -3 -3 -2 -1 -1 0 0 -0 -1 -1 -1 -2 -3 -4 -5 -5 -5 -5 -5 -5 -5 -5 -4 -4 -5 -6 -7 -7
1 1 -0 -1 -1 -1 -1 -1 -0 -0 -0 -1 -0 -1 -1 -2 -2 -3 -3 -2 -1 -0 0 0 -0 -1 -1 -2 -3 -4 -5 -6 -6 -6 -5 -5 -5 -5 -4 -4 -5 -6 -7 -7
0 -0 -1 -1 -1 -1 -1 -0 -0 -0 -1 -1 -0 -0 -0 -1 -1 -2 -3 -2 -2 -1 0 0 0 -0 -1 -2 -3 -4 -5 -6 -6 -6 -6 -6 -5 -5 -5 -5 -5 -6 -7 -7
0 -0 -1 -1 -1 -1 -1 -0 -0 -0 -1 -1 -0 -0 -0 -0 -0 -1 -2 -2 -2 -1 0 0 0 -0 -1 -2 -3 -4 -5 -6 -7 -7 -7 -6 -6 -6 -6 -5 -5 -5 -6 -7
-0 -0 -1 -1 -0 -0 -1 -1 -1 -1 -1 -1 -1 -0 -0 0 1 -0 -1 -2 -2 -1 -0 -0 -0 -1 -1 -1 -2 -3 -5 -6 -7 -7 -8 -7 -7 -6 -6 -6 -6 -5 -5 -5
-0 -0 -0 -0 0 0 -0 -1 -1 -1 -1 -1 -0 -0 0 0 1 0 -1 -2 -2 -2 -1 -1 -0 -1 -1 -1 -2 -3 -5 -7 -7 -8 -8 -8 -7 -7 -6 -6 -5 -4 -3 -3
-1 -1 -0 -0 0 0 0 -0 -1 -1 -1 -1 -0 0 0 1 1 1 -1 -2 -2 -2 -2 -1 -1 -1 -1 -1 -2 -4 -6 -7 -7 -8 -8 -8 -8 -7 -7 -6 -5 -3 -2 -1
-1 -1 -1 -1 -1 -0 0 -0 -1 -1 -1 -1 -0 -0 -0 0 0 0 -0 -1 -1 -2 -2 -2 -1 -1 -1 -1 -2 -5 -6 -7 -8 -8 -8 -9 -9 -8 -8 -7 -6 -4 -3 -1
-1 -1 -1 -1 -1 -1 -0 -0 -0 -1 -1 -1 -1 -0 -0 -0 -0 -1 -1 -1 -1 -1 -2 -2 -1 -1 -1 -1 -2 -4 -6 -7 -8 -8 -8 -9 -9 -9 -8 -7 -6 -5 -3 -2
-1 -1 -1 -1 -1 -1 -0 -0 -1 -1 -1 -1 -1 -0 0 -0 -1 -1 -1 -1 -1 -1 -2 -2 -2 -1 -1 -1 -2 -4 -5 -7 -7 -7 -8 -8 -9 -9 -8 -7 -7 -6 -5 -5
-0 -1 -1 -1 -1 -1 -0 -0 -1 -1 -1 -1 -1 -1 0 0 -1 -1 -1 -1 -1 -2 -2 -2 -2 -2 -1 -2 -3 -4 -5 -6 -7 -7 -8 -8 -9 -8 -8 -7 -7 -7 -7 -7
-0 -1 -1 -1 -1 -1 -0 -0 -0 -1 -1 -1 -1 -1 -0 0 -0 -1 -1 -1 -1 -2 -2 -2 -2 -2 -2 -3 -4 -5 -6 -7 -7 -8 -8 -8 -8 -8 -8 -8 -8 -8 -8 -9
0 -0 -1 -1 -1 -1 -1 -1 -0 -1 -1 -1 -1 -1 -0 -0 -0 -1 -0 -0 -1 -2 -3 -3 -3 -2 -3 -4 -5 -6 -7 -7 -8 -8 -8 -8 -9 -9 -9 -9 -9 -10 -10 -10
1 0 -0 -1 -1 -1 -1 -1 -1 -1 -1 -1 -1 -1 -1 -0 -0 -0 -0 -0 -1 -2 -3 -3 -3 -3 -4 -6 -7 -7 -8 -9 -9 -8 -8 -9 -9 -10 -10 -10 -11 -11 -11 -10
0 -0 -1 -1 -1 -1 -1 -1 -1 -1 -1 -1 -1 -1 -1 -1 -0 -0 -0 0 -0 -2 -3 -4 -4 -3 -5 -7 -8 -8 -9 -9 -9 -8 -9 -10 -10 -10 -11 -11 -11 -11 -11 -10
-0 -1 -1 -1 -1 -1 -1 -1 -1 -1 -1 -1 -1 -1 -1 -1 -1 -1 -1 -1 -0 -1 -3 -4 -4 -3 -5 -7 -8 -9 -10 -10 -9 -8 -9 -10 -11 -11 -11 -11 -11 -11 -11 -10
-1 -1 -1 -1 -1 -1 -1 -1 -1 -1 -1 -1 -1 -1 -1 -1 -1 -3 -3 -3 -2 -2 -3 -4 -4 -3 -5 -7 -8 -9 -10 -10 -9 -9 -10 -11 -11 -11 -11 -11 -11 -11 -10 -10
-0 -0 -0 -0 -1 -1 -1 -1 -1 -1 -1 -1 -1 -1 -1 -2 -2 -3 -3 -4 -5 -4 -4 -4 -4 -4 -5 -7 -9 -10 -10 -10 -9 -10 -10 -11 -11 -11 -12 -12 -12 -11 -10 -10
-0 -0 0 -0 -1 -0 -0 -0 -1 -1 -2 -2 -2 -2 -2 -3 -3 -2 -3 -5 -6 -6 -4 -4 -4 -5 -5 -7 -9 -10 -10 -10 -10 -10 -10 -11 -11 -11 -12 -12 -12 -11 -10 -9
-0 -0 -0 -0 -1 -0 -0 -0 -1 -2 -3 -3 -4 -4 -3 -3 -3 -3 -4 -6 -7 -6 -5 -5 -5 -5 -6 -8 -9 -10 -10 -10 -10 -10 -10 -11 -11 -11 -12 -12 -11 -11 -10 -9
-1 -1 -1 -1 -1 -1 -1 -1 -2 -3 -4 -4 -4 -4 -4 -4 -4 -5 -6 -8 -7 -6 -5 -5 -6 -7 -8 -9 -10 -10 -10 -10 -10 -10 -10 -11 -11 -12 -12 -12 -11 -10 -10 -9
-2 -1 -1 -1 -1 -2 -2 -2 -3 -3 -3 -4 -4 -4 -4 -4 -4 -5 -7 -8 -7 -6 -5 -5 -6 -8 -9 -10 -10 -10 -10 -9 -9 -10 -11 -11 -12 -12 -12 -11 -11 -10 -9 -9
-2 -2 -1 -2 -2 -3 -3 -2 -3 -3 -3 -3 -3 -3 -4 -4 -5 -6 -7 -8 -8 -7 -6 -6 -7 -8 -9 -10 -10 -10 -10 -10 -10 -11 -11 -12 -12 -12 -11 -11 -10 -10 -9 -8
-1 -2 -2 -2 -3 -3 -3 -2 -2 -2 -2 -2 -3 -3 -4 -4 -5 -6 -8 -9 -9 -8 -7 -7 -8 -9 -9 -9 -10 -10 -10 -10 -11 -11 -12 -12 -12 -11 -11 -10 -9 -9 -8 -7